This is the latest recevied weather packets stored in our database for station/object N5GMJ. If no packets are shown the sender has not sent any weather packets the latest 10 day(s).
| Time | Temp. | Humidity | Pressure | Rain* | Wind** | Luminosity | Snow |
|---|---|---|---|---|---|---|---|
| 1787609827 | 44.44° C | 20% | 1011.9 hPa | 0 mm | - | - | - |
| 1787609522 | 43.33° C | 20% | 1011.9 hPa | 0 mm | - | - | - |
| 1787609222 | 43.89° C | 20% | 1011.9 hPa | 0 mm | - | - | - |
| 1787608917 | 44.44° C | 19% | 1012.2 hPa | 0 mm | - | - | - |
| 1787608617 | 42.78° C | 20% | 1011.9 hPa | 0 mm | - | - | - |
| 1787608312 | 43.33° C | 21% | 1012.2 hPa | 0 mm | - | - | - |
| 1787608009 | 43.33° C | 20% | 1012 hPa | 0 mm | - | - | - |
| 1787607705 | 43.33° C | 21% | 1012 hPa | 0 mm | - | - | - |
| 1787607402 | 43.89° C | 20% | 1012.1 hPa | 0 mm | - | - | - |
| 1787607099 | 43.33° C | 21% | 1012.2 hPa | 0 mm | - | - | - |
| 1787606798 | 42.78° C | 19% | 1012.2 hPa | 0 mm | - | - | - |
| 1787606498 | 43.33° C | 20% | 1012.5 hPa | 0 mm | - | - | - |
| 1787606196 | 44.44° C | 19% | 1012.6 hPa | 0 mm | - | - | - |
| 1787605891 | 45° C | 20% | 1012.5 hPa | 0 mm | - | - | - |
| 1787605590 | 43.89° C | 20% | 1012.6 hPa | 0 mm | - | - | - |
| 1787605287 | 42.78° C | 22% | 1012.6 hPa | 0 mm | - | - | - |
| 1787604986 | 43.33° C | 21% | 1012.7 hPa | 0 mm | - | - | - |
| 1787604686 | 43.89° C | 21% | 1012.7 hPa | 0 mm | - | - | - |
| 1787604385 | 44.44° C | 22% | 1012.8 hPa | 0 mm | - | - | - |
| 1787604081 | 45° C | 21% | 1012.9 hPa | 0 mm | - | - | - |
| 1787603781 | 43.33° C | 21% | 1013.1 hPa | 0 mm | - | - | - |
| 1787603476 | 44.44° C | 21% | 1013 hPa | 0 mm | - | - | - |
| 1787603172 | 43.33° C | 21% | 1013.4 hPa | 0 mm | - | - | - |
| 1787602868 | 42.78° C | 23% | 1013.4 hPa | 0 mm | - | - | - |
| 1787602568 | 44.44° C | 22% | 1013.4 hPa | 0 mm | - | - | - |
* Rain latest hour (hover to see other rain measurements)
** Current wind speed in m/s (hover to see current wind gust speed)